owner,sensor,date,latitude,longitude,vertical_datum,wind_speed,wind_to_direction,wind_speed_of_gust,qcFlag 
TABS,ioos:station:wmo:42046:1,2008-06-01T00:00:00Z,27.8903,-94.0367,4.0,3.952885022,134.4878459,4.82,'11111222,11111222,11111222' 
TABS,ioos:station:wmo:42046:1,2008-06-01T00:30:00Z,27.8903,-94.0367,4.0,3.904932778,131.1586441,5.01,'11111222,11111222,11111222' 
TABS,ioos:station:wmo:42046:1,2008-06-01T01:00:00Z,27.8903,-94.0367,4.0,4.412368978,135.1839549,5.37,'11111222,11111222,11111222' 
TABS,ioos:station:wmo:42046:1,2008-06-01T01:30:00Z,27.8903,-94.0367,4.0,4.158172676,135.7798002,5.15,'11111222,11111222,11111222' 
TABS,ioos:station:wmo:42046:1,2008-06-01T02:00:00Z,27.8903,-94.0367,4.0,5.528263742,150.0497163,6.41,'11111222,11111222,11111222' 
TABS,ioos:station:wmo:42046:1,2008-06-01T02:30:00Z,27.8903,-94.0367,4.0,5.215074304,140.6026739,6.2,'11111222,11111222,11111222' 
TABS,ioos:station:wmo:42046:1,2008-06-01T03:00:00Z,27.8903,-94.0367,4.0,5.388923826,146.4281745,6.62,'11111222,11111222,11111222' 
TABS,ioos:station:wmo:42046:1,2008-06-01T03:30:00Z,27.8903,-94.0367,4.0,5.16139516,144.4626158,6.54,'11111222,11111222,11111222' 
TABS,ioos:station:wmo:42046:1,2008-06-01T04:00:00Z,27.8903,-94.0367,4.0,4.834563062,145.6199461,6.37,'11111222,11111222,11111222' 
TABS,ioos:station:wmo:42046:1,2008-06-01T04:30:00Z,27.8903,-94.0367,4.0,5.333235416,139.4106633,7.03,'11111222,11111222,11111222' 
TABS,ioos:station:wmo:42046:1,2008-06-01T05:00:00Z,27.8903,-94.0367,4.0,4.83011387,152.9047213,5.94,'11111222,11111222,11111222' 
TABS,ioos:station:wmo:42046:1,2008-06-01T05:30:00Z,27.8903,-94.0367,4.0,5.263857901,152.9971154,7.01,'11111222,11111222,11111222' 
TABS,ioos:station:wmo:42046:1,2008-06-01T06:00:00Z,27.8903,-94.0367,4.0,5.062529012,153.7389057,6.95,'11111222,11111222,11111222' 
TABS,ioos:station:wmo:42046:1,2008-06-01T06:30:00Z,27.8903,-94.0367,4.0,5.446062798,160.7002794,7.17,'11111222,11111222,11111222' 
TABS,ioos:station:wmo:42046:1,2008-06-01T07:00:00Z,27.8903,-94.0367,4.0,5.372169022,158.2582667,6.79,'11111222,11111222,11111222' 
TABS,ioos:station:wmo:42046:1,2008-06-01T07:30:00Z,27.8903,-94.0367,4.0,5.665650889,171.2694459,7.15,'11111222,11111222,11111222' 
TABS,ioos:station:wmo:42046:1,2008-06-01T08:00:00Z,27.8903,-94.0367,4.0,4.597390564,169.472449,5.61,'11111222,11111222,11111222' 
TABS,ioos:station:wmo:42046:1,2008-06-01T08:30:00Z,27.8903,-94.0367,4.0,4.764031906,166.8974512,6.02,'11111222,11111222,11111222' 
TABS,ioos:station:wmo:42046:1,2008-06-01T09:00:00Z,27.8903,-94.0367,4.0,5.644687768,161.4048132,6.99,'11111222,11111222,11111222' 
TABS,ioos:station:wmo:42046:1,2008-06-01T09:30:00Z,27.8903,-94.0367,4.0,5.119775386,161.3175796,7.19,'11111222,11111222,11111222' 
TABS,ioos:station:wmo:42046:1,2008-06-01T10:00:00Z,27.8903,-94.0367,4.0,5.398166355,158.1397233,7.13,'11111222,11111222,11111222' 
TABS,ioos:station:wmo:42046:1,2008-06-01T10:30:00Z,27.8903,-94.0367,4.0,4.82374336,160.2505535,6.44,'11111222,11111222,11111222' 
TABS,ioos:station:wmo:42046:1,2008-06-01T11:00:00Z,27.8903,-94.0367,4.0,5.413400041,165.8869896,7.23,'11111222,11111222,11111222' 
TABS,ioos:station:wmo:42046:1,2008-06-01T11:30:00Z,27.8903,-94.0367,4.0,4.694006817,171.3004694,6.27,'11111222,11111222,11111222' 
TABS,ioos:station:wmo:42046:1,2008-06-01T12:00:00Z,27.8903,-94.0367,4.0,5.244358874,170.34034,7.03,'11111222,11111222,11111222' 
TABS,ioos:station:wmo:42046:1,2008-06-01T12:30:00Z,27.8903,-94.0367,4.0,4.283608292,166.7750391,5.44,'11111222,11111222,11111222' 
TABS,ioos:station:wmo:42046:1,2008-06-01T13:00:00Z,27.8903,-94.0367,4.0,5.001649728,166.8253147,6.17,'11111222,11111222,11111222' 
TABS,ioos:station:wmo:42046:1,2008-06-01T13:30:00Z,27.8903,-94.0367,4.0,4.085890356,155.5679182,5.5,'11111222,11111222,11111222' 
TABS,ioos:station:wmo:42046:1,2008-06-01T14:00:00Z,27.8903,-94.0367,4.0,4.108381677,143.9114013,5.39,'11111222,11111222,11111222' 
TABS,ioos:station:wmo:42046:1,2008-06-01T14:30:00Z,27.8903,-94.0367,4.0,4.218494992,146.3102217,5.46,'11111222,11111222,11111222' 
TABS,ioos:station:wmo:42046:1,2008-06-01T15:00:00Z,27.8903,-94.0367,4.0,4.269074841,145.3051381,5.37,'11111222,11111222,11111222' 
TABS,ioos:station:wmo:42046:1,2008-06-01T15:30:00Z,27.8903,-94.0367,4.0,4.354882318,139.4703627,5.35,'11111222,11111222,11111222' 
TABS,ioos:station:wmo:42046:1,2008-06-01T16:00:00Z,27.8903,-94.0367,4.0,3.924041284,143.3932212,5.46,'11111222,11111222,11111222' 
TABS,ioos:station:wmo:42046:1,2008-06-01T16:30:00Z,27.8903,-94.0367,4.0,4.642003878,143.0563418,5.91,'11111222,11111222,11111222' 
TABS,ioos:station:wmo:42046:1,2008-06-01T17:00:00Z,27.8903,-94.0367,4.0,5.140476632,142.3501564,6.71,'11111222,11111222,11111222' 
TABS,ioos:station:wmo:42046:1,2008-06-01T17:30:00Z,27.8903,-94.0367,4.0,5.241698198,148.0991812,6.54,'11111222,11111222,11111222' 
TABS,ioos:station:wmo:42046:1,2008-06-01T18:00:00Z,27.8903,-94.0367,4.0,5.084014162,142.9951617,6.48,'11111222,11111222,11111222' 
TABS,ioos:station:wmo:42046:1,2008-06-01T18:30:00Z,27.8903,-94.0367,4.0,4.916350272,141.3586933,6.15,'11111222,11111222,11111222' 
TABS,ioos:station:wmo:42046:1,2008-06-01T19:00:00Z,27.8903,-94.0367,4.0,4.150722829,134.9027082,5.35,'11111222,11111222,11111222' 
TABS,ioos:station:wmo:42046:1,2008-06-01T19:30:00Z,27.8903,-94.0367,4.0,3.923378646,125.3512749,5.21,'11111222,11111222,11111222' 
TABS,ioos:station:wmo:42046:1,2008-06-01T20:00:00Z,27.8903,-94.0367,4.0,3.836000521,126.8403597,5.57,'11111222,11111222,11111222' 
TABS,ioos:station:wmo:42046:1,2008-06-01T20:30:00Z,27.8903,-94.0367,4.0,4.081421321,118.7004431,5.06,'11111222,11111222,11111222' 
TABS,ioos:station:wmo:42046:1,2008-06-01T21:00:00Z,27.8903,-94.0367,4.0,3.58108922,120.3604376,4.38,'11111222,11111222,11111222' 
TABS,ioos:station:wmo:42046:1,2008-06-01T21:30:00Z,27.8903,-94.0367,4.0,3.946707489,123.5293542,5.01,'11111222,11111222,11111222' 
TABS,ioos:station:wmo:42046:1,2008-06-01T22:00:00Z,27.8903,-94.0367,4.0,4.133860181,125.1513242,5.12,'11111222,11111222,11111222' 
TABS,ioos:station:wmo:42046:1,2008-06-01T22:30:00Z,27.8903,-94.0367,4.0,4.211614892,106.4129548,5.35,'11111222,11111222,11111222' 
TABS,ioos:station:wmo:42046:1,2008-06-01T23:00:00Z,27.8903,-94.0367,4.0,5.510299447,114.1001013,6.77,'11111222,11111222,11111222' 
TABS,ioos:station:wmo:42046:1,2008-06-01T23:30:00Z,27.8903,-94.0367,4.0,5.538817563,109.8420757,6.79,'11111222,11111222,11111222' 
TABS,ioos:station:wmo:42046:1,2008-06-02T00:00:00Z,27.8903,-94.0367,4.0,5.682050686,126.6282247,6.78,'11111222,11111222,11111222' 
TABS,ioos:station:wmo:42046:1,2008-06-02T00:30:00Z,27.8903,-94.0367,4.0,6.29636403,133.1983504,7.6,'11111222,11111222,11111222' 
TABS,ioos:station:wmo:42046:1,2008-06-02T01:00:00Z,27.8903,-94.0367,4.0,6.131598487,141.8220799,7.47,'11111222,11111222,11111222' 
TABS,ioos:station:wmo:42046:1,2008-06-02T01:30:00Z,27.8903,-94.0367,4.0,6.486370326,148.4911586,7.87,'11111222,11111222,11111222' 
TABS,ioos:station:wmo:42046:1,2008-06-02T02:00:00Z,27.8903,-94.0367,4.0,5.730078533,152.2277636,7.41,'11111222,11111222,11111222' 
TABS,ioos:station:wmo:42046:1,2008-06-02T02:30:00Z,27.8903,-94.0367,4.0,6.018388489,164.8787224,7.69,'11111222,11111222,11111222' 
TABS,ioos:station:wmo:42046:1,2008-06-02T03:00:00Z,27.8903,-94.0367,4.0,5.784747185,162.5989577,7.13,'11111222,11111222,11111222' 
TABS,ioos:station:wmo:42046:1,2008-06-02T03:30:00Z,27.8903,-94.0367,4.0,5.850982823,160.6362676,7.43,'11111222,11111222,11111222' 
TABS,ioos:station:wmo:42046:1,2008-06-02T04:00:00Z,27.8903,-94.0367,4.0,7.220983313,171.959897,8.63,'11111222,11111222,11111222' 
TABS,ioos:station:wmo:42046:1,2008-06-02T04:30:00Z,27.8903,-94.0367,4.0,7.225461923,170.198964,9.19,'11111222,11111222,11111222' 
TABS,ioos:station:wmo:42046:1,2008-06-02T05:00:00Z,27.8903,-94.0367,4.0,6.20014516,171.3735076,7.99,'11111222,11111222,11111222' 
TABS,ioos:station:wmo:42046:1,2008-06-02T05:30:00Z,27.8903,-94.0367,4.0,5.99488115,167.3781336,7.77,'11111222,11111222,11111222' 
TABS,ioos:station:wmo:42046:1,2008-06-02T06:00:00Z,27.8903,-94.0367,4.0,5.869310011,169.9922541,7.44,'11111222,11111222,11111222' 
TABS,ioos:station:wmo:42046:1,2008-06-02T06:30:00Z,27.8903,-94.0367,4.0,6.073186972,171.0962693,7.79,'11111222,11111222,11111222' 
TABS,ioos:station:wmo:42046:1,2008-06-02T07:00:00Z,27.8903,-94.0367,4.0,6.371820776,168.7784786,8.36,'11111222,11111222,11111222' 
TABS,ioos:station:wmo:42046:1,2008-06-02T07:30:00Z,27.8903,-94.0367,4.0,6.214957763,168.4914248,7.88,'11111222,11111222,11111222' 
TABS,ioos:station:wmo:42046:1,2008-06-02T08:00:00Z,27.8903,-94.0367,4.0,5.654661794,160.7962819,7.37,'11111222,11111222,11111222' 
TABS,ioos:station:wmo:42046:1,2008-06-02T08:30:00Z,27.8903,-94.0367,4.0,5.672459784,169.6411822,7.31,'11111222,11111222,11111222' 
TABS,ioos:station:wmo:42046:1,2008-06-02T09:00:00Z,27.8903,-94.0367,4.0,5.197634077,166.311566,7.01,'11111222,11111222,11111222' 
TABS,ioos:station:wmo:42046:1,2008-06-02T09:30:00Z,27.8903,-94.0367,4.0,5.121035052,170.4459431,6.53,'11111222,11111222,11111222' 
TABS,ioos:station:wmo:42046:1,2008-06-02T10:00:00Z,27.8903,-94.0367,4.0,4.685264133,168.4264921,6.13,'11111222,11111222,11111222' 
TABS,ioos:station:wmo:42046:1,2008-06-02T10:30:00Z,27.8903,-94.0367,4.0,3.502870252,175.0871606,4.88,'11111222,11111222,11111222' 
TABS,ioos:station:wmo:42046:1,2008-06-02T11:00:00Z,27.8903,-94.0367,4.0,3.787149324,169.1947067,4.9,'11111222,11111222,11111222' 
TABS,ioos:station:wmo:42046:1,2008-06-02T11:30:00Z,27.8903,-94.0367,4.0,4.54757078,173.6878605,5.99,'11111222,11111222,11111222' 
TABS,ioos:station:wmo:42046:1,2008-06-02T12:00:00Z,27.8903,-94.0367,4.0,4.701201974,169.3356599,5.77,'11111222,11111222,11111222' 
TABS,ioos:station:wmo:42046:1,2008-06-02T12:30:00Z,27.8903,-94.0367,4.0,4.98912818,165.4904929,6.11,'11111222,11111222,11111222' 
TABS,ioos:station:wmo:42046:1,2008-06-02T13:00:00Z,27.8903,-94.0367,4.0,4.961068433,171.7721301,5.92,'11111222,11111222,11111222' 
TABS,ioos:station:wmo:42046:1,2008-06-02T13:30:00Z,27.8903,-94.0367,4.0,5.180357131,173.7943868,6.37,'11111222,11111222,11111222' 
TABS,ioos:station:wmo:42046:1,2008-06-02T14:00:00Z,27.8903,-94.0367,4.0,4.750789408,176.1380104,5.99,'11111222,11111222,11111222' 
TABS,ioos:station:wmo:42046:1,2008-06-02T14:30:00Z,27.8903,-94.0367,4.0,4.429503358,176.2463742,5.39,'11111222,11111222,11111222' 
TABS,ioos:station:wmo:42046:1,2008-06-02T15:00:00Z,27.8903,-94.0367,4.0,4.69038378,179.2672571,5.83,'11111222,11111222,11111222' 
TABS,ioos:station:wmo:42046:1,2008-06-02T15:30:00Z,27.8903,-94.0367,4.0,4.863712574,177.7613974,5.99,'11111222,11111222,11111222' 
TABS,ioos:station:wmo:42046:1,2008-06-02T16:00:00Z,27.8903,-94.0367,4.0,4.318564576,174.6856772,5.08,'11111222,11111222,11111222' 
TABS,ioos:station:wmo:42046:1,2008-06-02T16:30:00Z,27.8903,-94.0367,4.0,4.164048511,167.7997703,5.21,'11111222,11111222,11111222' 
TABS,ioos:station:wmo:42046:1,2008-06-02T17:00:00Z,27.8903,-94.0367,4.0,3.947416877,171.1106091,4.56,'11111222,11111222,11111222' 
TABS,ioos:station:wmo:42046:1,2008-06-02T17:30:00Z,27.8903,-94.0367,4.0,3.158306508,164.95197,4.39,'11111222,11111222,11111222' 
TABS,ioos:station:wmo:42046:1,2008-06-02T18:00:00Z,27.8903,-94.0367,4.0,3.510697936,178.8577137,4.32,'11111222,11111222,11111222' 
TABS,ioos:station:wmo:42046:1,2008-06-02T18:30:00Z,27.8903,-94.0367,4.0,3.24038578,179.1160886,4.22,'11111222,11111222,11111222' 
TABS,ioos:station:wmo:42046:1,2008-06-02T19:00:00Z,27.8903,-94.0367,4.0,3.169684527,170.9242341,4.17,'11111222,11111222,11111222' 
TABS,ioos:station:wmo:42046:1,2008-06-02T19:30:00Z,27.8903,-94.0367,4.0,3.264965543,170.4802109,4.11,'11111222,11111222,11111222' 
TABS,ioos:station:wmo:42046:1,2008-06-02T20:00:00Z,27.8903,-94.0367,4.0,3.184980377,162.6462264,4.17,'11111222,11111222,11111222' 
TABS,ioos:station:wmo:42046:1,2008-06-02T20:30:00Z,27.8903,-94.0367,4.0,4.297964635,156.1189903,5.12,'11111222,11111222,11111222' 
TABS,ioos:station:wmo:42046:1,2008-06-02T21:00:00Z,27.8903,-94.0367,4.0,5.029055577,164.6651894,6.08,'11111222,11111222,11111222' 
TABS,ioos:station:wmo:42046:1,2008-06-02T21:30:00Z,27.8903,-94.0367,4.0,5.215639942,162.7117595,6.51,'11111222,11111222,11111222' 
TABS,ioos:station:wmo:42046:1,2008-06-02T22:00:00Z,27.8903,-94.0367,4.0,4.373522608,166.9172504,5.18,'11111222,11111222,11111222' 
TABS,ioos:station:wmo:42046:1,2008-06-02T22:30:00Z,27.8903,-94.0367,4.0,5.336899849,158.3384027,6.39,'11111222,11111222,11111222' 
TABS,ioos:station:wmo:42046:1,2008-06-02T23:00:00Z,27.8903,-94.0367,4.0,5.026101869,143.4951893,5.83,'11111222,11111222,11111222' 
TABS,ioos:station:wmo:42046:1,2008-06-02T23:30:00Z,27.8903,-94.0367,4.0,4.687440666,149.7702395,5.66,'11111222,11111222,11111222' 
TABS,ioos:station:wmo:42046:1,2008-06-03T00:00:00Z,27.8903,-94.0367,4.0,4.3134441,134.6246119,5.24,'11111222,11111222,11111222' 
TABS,ioos:station:wmo:42046:1,2008-06-03T00:30:00Z,27.8903,-94.0367,4.0,4.398772556,146.3102217,5.6,'11111222,11111222,11111222' 
TABS,ioos:station:wmo:42046:1,2008-06-03T01:00:00Z,27.8903,-94.0367,4.0,4.09538765,148.98854,5.01,'11111222,11111222,11111222' 
TABS,ioos:station:wmo:42046:1,2008-06-03T01:30:00Z,27.8903,-94.0367,4.0,4.787065907,155.0412206,5.91,'11111222,11111222,11111222' 
TABS,ioos:station:wmo:42046:1,2008-06-03T02:00:00Z,27.8903,-94.0367,4.0,5.116189989,157.5957622,6.47,'11111222,11111222,11111222' 
TABS,ioos:station:wmo:42046:1,2008-06-03T02:30:00Z,27.8903,-94.0367,4.0,5.528155208,165.0087419,7.38,'11111222,11111222,11111222' 
TABS,ioos:station:wmo:42046:1,2008-06-03T03:00:00Z,27.8903,-94.0367,4.0,5.509600711,158.0443646,7.05,'11111222,11111222,11111222' 
TABS,ioos:station:wmo:42046:1,2008-06-03T03:30:00Z,27.8903,-94.0367,4.0,5.957851962,161.2003693,8.03,'11111222,11111222,11111222' 
TABS,ioos:station:wmo:42046:1,2008-06-03T04:00:00Z,27.8903,-94.0367,4.0,6.145176971,156.6057924,7.85,'11111222,11111222,11111222' 
TABS,ioos:station:wmo:42046:1,2008-06-03T04:30:00Z,27.8903,-94.0367,4.0,6.165233167,158.5957733,7.83,'11111222,11111222,11111222' 
TABS,ioos:station:wmo:42046:1,2008-06-03T05:00:00Z,27.8903,-94.0367,4.0,6.063868402,151.3219498,7.66,'11111222,11111222,11111222' 
TABS,ioos:station:wmo:42046:1,2008-06-03T05:30:00Z,27.8903,-94.0367,4.0,6.549297672,162.0356109,8.35,'11111222,11111222,11111222' 
TABS,ioos:station:wmo:42046:1,2008-06-03T06:00:00Z,27.8903,-94.0367,4.0,6.963346896,161.6693839,9.43,'11111222,11111222,11111222' 
TABS,ioos:station:wmo:42046:1,2008-06-03T06:30:00Z,27.8903,-94.0367,4.0,7.412961621,164.989168,9.54,'11111222,11111222,11111222' 
TABS,ioos:station:wmo:42046:1,2008-06-03T07:00:00Z,27.8903,-94.0367,4.0,7.260172174,170.0059688,9.46,'11111222,11111222,11111222' 
TABS,ioos:station:wmo:42046:1,2008-06-03T07:30:00Z,27.8903,-94.0367,4.0,7.01263146,166.8953931,8.94,'11111222,11111222,11111222' 
TABS,ioos:station:wmo:42046:1,2008-06-03T08:00:00Z,27.8903,-94.0367,4.0,6.831251715,167.143928,9.12,'11111222,11111222,11111222' 
TABS,ioos:station:wmo:42046:1,2008-06-03T08:30:00Z,27.8903,-94.0367,4.0,6.824404736,172.7606613,9.38,'11111222,11111222,11111222' 
TABS,ioos:station:wmo:42046:1,2008-06-03T09:00:00Z,27.8903,-94.0367,4.0,6.950942382,173.0592433,8.68,'11111222,11111222,11111222' 
TABS,ioos:station:wmo:42046:1,2008-06-03T09:30:00Z,27.8903,-94.0367,4.0,7.091360941,175.551941,8.98,'11111222,11111222,11111222' 
TABS,ioos:station:wmo:42046:1,2008-06-03T10:00:00Z,27.8903,-94.0367,4.0,7.216848343,172.1957308,8.86,'11111222,11111222,11111222' 
TABS,ioos:station:wmo:42046:1,2008-06-03T10:30:00Z,27.8903,-94.0367,4.0,6.919747105,171.8584174,9.54,'11111222,11111222,11111222' 
TABS,ioos:station:wmo:42046:1,2008-06-03T11:00:00Z,27.8903,-94.0367,4.0,7.252372026,173.1103891,9.49,'11111222,11111222,11111222' 
TABS,ioos:station:wmo:42046:1,2008-06-03T11:30:00Z,27.8903,-94.0367,4.0,7.24,180.0002105,9.37,'11111222,11111222,11111222' 
TABS,ioos:station:wmo:42046:1,2008-06-03T12:00:00Z,27.8903,-94.0367,4.0,6.967244793,186.6764017,8.94,'11111222,11111222,11111222' 
TABS,ioos:station:wmo:42046:1,2008-06-03T12:30:00Z,27.8903,-94.0367,4.0,7.02086177,180.897932,9.0,'11111222,11111222,11111222' 
TABS,ioos:station:wmo:42046:1,2008-06-03T13:00:00Z,27.8903,-94.0367,4.0,6.799014634,182.9509827,8.99,'11111222,11111222,11111222' 
TABS,ioos:station:wmo:42046:1,2008-06-03T13:30:00Z,27.8903,-94.0367,4.0,7.393409227,186.212018,9.47,'11111222,11111222,11111222' 
TABS,ioos:station:wmo:42046:1,2008-06-03T14:00:00Z,27.8903,-94.0367,4.0,7.24389398,187.6157431,9.38,'11111222,11111222,11111222' 
TABS,ioos:station:wmo:42046:1,2008-06-03T14:30:00Z,27.8903,-94.0367,4.0,7.445817618,187.0202207,9.39,'11111222,11111222,11111222' 
TABS,ioos:station:wmo:42046:1,2008-06-03T15:00:00Z,27.8903,-94.0367,4.0,7.221170265,186.1213349,9.08,'11111222,11111222,11111222' 
TABS,ioos:station:wmo:42046:1,2008-06-03T15:30:00Z,27.8903,-94.0367,4.0,6.791244363,187.7007635,8.83,'11111222,11111222,11111222' 
TABS,ioos:station:wmo:42046:1,2008-06-03T16:00:00Z,27.8903,-94.0367,4.0,6.602279909,189.5909119,8.52,'11111222,11111222,11111222' 
TABS,ioos:station:wmo:42046:1,2008-06-03T16:30:00Z,27.8903,-94.0367,4.0,6.508840142,188.9270528,7.75,'11111222,11111222,11111222' 
TABS,ioos:station:wmo:42046:1,2008-06-03T17:00:00Z,27.8903,-94.0367,4.0,6.415122758,193.7981419,8.36,'11111222,11111222,11111222' 
TABS,ioos:station:wmo:42046:1,2008-06-03T17:30:00Z,27.8903,-94.0367,4.0,6.786376058,194.5073897,8.35,'11111222,11111222,11111222' 
TABS,ioos:station:wmo:42046:1,2008-06-03T18:00:00Z,27.8903,-94.0367,4.0,6.289554833,194.831836,7.73,'11111222,11111222,11111222' 
TABS,ioos:station:wmo:42046:1,2008-06-03T18:30:00Z,27.8903,-94.0367,4.0,5.828902126,197.4714713,7.14,'11111222,11111222,11111222' 
TABS,ioos:station:wmo:42046:1,2008-06-03T19:00:00Z,27.8903,-94.0367,4.0,5.886340119,194.0600287,6.8,'11111222,11111222,11111222' 
TABS,ioos:station:wmo:42046:1,2008-06-03T19:30:00Z,27.8903,-94.0367,4.0,5.20096145,195.1586736,6.64,'11111222,11111222,11111222' 
TABS,ioos:station:wmo:42046:1,2008-06-03T20:00:00Z,27.8903,-94.0367,4.0,4.641228286,192.5691587,6.14,'11111222,11111222,11111222' 
TABS,ioos:station:wmo:42046:1,2008-06-03T20:30:00Z,27.8903,-94.0367,4.0,5.164116575,198.0491746,6.46,'11111222,11111222,11111222' 
TABS,ioos:station:wmo:42046:1,2008-06-03T21:00:00Z,27.8903,-94.0367,4.0,4.094142157,193.5612311,5.39,'11111222,11111222,11111222' 
TABS,ioos:station:wmo:42046:1,2008-06-03T21:30:00Z,27.8903,-94.0367,4.0,4.33970045,183.8318409,5.61,'11111222,11111222,11111222' 
TABS,ioos:station:wmo:42046:1,2008-06-03T22:00:00Z,27.8903,-94.0367,4.0,5.009361237,185.0392987,6.0,'11111222,11111222,11111222' 
TABS,ioos:station:wmo:42046:1,2008-06-03T22:30:00Z,27.8903,-94.0367,4.0,4.610694091,180.9943952,5.87,'11111222,11111222,11111222' 
TABS,ioos:station:wmo:42046:1,2008-06-03T23:00:00Z,27.8903,-94.0367,4.0,4.409648512,172.3111368,5.71,'11111222,11111222,11111222' 
TABS,ioos:station:wmo:42046:1,2008-06-03T23:30:00Z,27.8903,-94.0367,4.0,4.809261898,163.4493506,5.72,'11111222,11111222,11111222' 
TABS,ioos:station:wmo:42046:1,2008-06-04T00:00:00Z,27.8903,-94.0367,4.0,5.022927433,165.8256716,6.35,'11111222,11111222,11111222' 
TABS,ioos:station:wmo:42046:1,2008-06-04T00:30:00Z,27.8903,-94.0367,4.0,4.950202016,160.284146,6.17,'11111222,11111222,11111222' 
TABS,ioos:station:wmo:42046:1,2008-06-04T01:00:00Z,27.8903,-94.0367,4.0,5.053988524,162.497442,6.16,'11111222,11111222,11111222' 
TABS,ioos:station:wmo:42046:1,2008-06-04T01:30:00Z,27.8903,-94.0367,4.0,5.998483142,159.8131363,7.47,'11111222,11111222,11111222' 
TABS,ioos:station:wmo:42046:1,2008-06-04T02:00:00Z,27.8903,-94.0367,4.0,6.202104482,160.6012161,7.95,'11111222,11111222,11111222' 
TABS,ioos:station:wmo:42046:1,2008-06-04T02:30:00Z,27.8903,-94.0367,4.0,6.556256554,164.246917,8.43,'11111222,11111222,11111222' 
TABS,ioos:station:wmo:42046:1,2008-06-04T03:00:00Z,27.8903,-94.0367,4.0,6.140032573,163.9266739,7.77,'11111222,11111222,11111222' 
TABS,ioos:station:wmo:42046:1,2008-06-04T03:30:00Z,27.8903,-94.0367,4.0,6.53012251,164.0910081,8.18,'11111222,11111222,11111222' 
TABS,ioos:station:wmo:42046:1,2008-06-04T04:00:00Z,27.8903,-94.0367,4.0,7.380758769,161.5162082,9.55,'11111222,11111222,11111222' 
TABS,ioos:station:wmo:42046:1,2008-06-04T04:30:00Z,27.8903,-94.0367,4.0,7.710804109,167.5681471,9.93,'11111222,11111222,11111222' 
TABS,ioos:station:wmo:42046:1,2008-06-04T05:00:00Z,27.8903,-94.0367,4.0,7.869396419,164.1448606,10.27,'11111222,11111222,11111222' 
TABS,ioos:station:wmo:42046:1,2008-06-04T05:30:00Z,27.8903,-94.0367,4.0,7.471151183,169.6679509,10.38,'11111222,11111222,11111222' 
TABS,ioos:station:wmo:42046:1,2008-06-04T06:00:00Z,27.8903,-94.0367,4.0,8.402440122,170.6163822,11.63,'11111222,11111222,11111222' 
TABS,ioos:station:wmo:42046:1,2008-06-04T06:30:00Z,27.8903,-94.0367,4.0,9.139201278,175.4188008,11.69,'11111222,11111222,11111222' 
TABS,ioos:station:wmo:42046:1,2008-06-04T07:00:00Z,27.8903,-94.0367,4.0,8.858893836,171.4310886,11.46,'11111222,11111222,11111222' 
TABS,ioos:station:wmo:42046:1,2008-06-04T07:30:00Z,27.8903,-94.0367,4.0,9.20011413,173.446835,12.28,'11111222,11111222,11111222' 
TABS,ioos:station:wmo:42046:1,2008-06-04T08:00:00Z,27.8903,-94.0367,4.0,9.592132193,173.4753372,12.02,'11111222,11111222,11111222' 
TABS,ioos:station:wmo:42046:1,2008-06-04T08:30:00Z,27.8903,-94.0367,4.0,9.635709626,176.728034,12.13,'11111222,11111222,11111222' 
TABS,ioos:station:wmo:42046:1,2008-06-04T09:00:00Z,27.8903,-94.0367,4.0,9.281745525,178.8890118,12.64,'11111222,11111222,11111222' 
TABS,ioos:station:wmo:42046:1,2008-06-04T09:30:00Z,27.8903,-94.0367,4.0,9.063801631,174.3651107,11.67,'11111222,11111222,11111222' 
TABS,ioos:station:wmo:42046:1,2008-06-04T10:00:00Z,27.8903,-94.0367,4.0,9.132622843,176.98743,11.61,'11111222,11111222,11111222' 
TABS,ioos:station:wmo:42046:1,2008-06-04T10:30:00Z,27.8903,-94.0367,4.0,8.595743133,176.5319893,11.28,'11111222,11111222,11111222' 
TABS,ioos:station:wmo:42046:1,2008-06-04T11:00:00Z,27.8903,-94.0367,4.0,8.981425277,176.0418661,11.5,'11111222,11111222,11111222' 
TABS,ioos:station:wmo:42046:1,2008-06-04T11:30:00Z,27.8903,-94.0367,4.0,9.050795545,179.2405337,12.13,'11111222,11111222,11111222' 
TABS,ioos:station:wmo:42046:1,2008-06-04T12:00:00Z,27.8903,-94.0367,4.0,8.788230766,186.5995768,11.45,'11111222,11111222,11111222' 
TABS,ioos:station:wmo:42046:1,2008-06-04T12:30:00Z,27.8903,-94.0367,4.0,9.193008213,184.0547343,11.96,'11111222,11111222,11111222' 
TABS,ioos:station:wmo:42046:1,2008-06-04T13:00:00Z,27.8903,-94.0367,4.0,8.924584024,183.2761846,11.44,'11111222,11111222,11111222' 
TABS,ioos:station:wmo:42046:1,2008-06-04T13:30:00Z,27.8903,-94.0367,4.0,8.478171973,189.1625361,10.92,'11111222,11111222,11111222' 
TABS,ioos:station:wmo:42046:1,2008-06-04T14:00:00Z,27.8903,-94.0367,4.0,8.951793116,186.7362059,11.31,'11111222,11111222,11111222' 
TABS,ioos:station:wmo:42046:1,2008-06-04T14:30:00Z,27.8903,-94.0367,4.0,8.617110885,182.3280201,10.62,'11111222,11111222,11111222' 
TABS,ioos:station:wmo:42046:1,2008-06-04T15:00:00Z,27.8903,-94.0367,4.0,8.421003503,180.8847523,10.54,'11111222,11111222,11111222' 
TABS,ioos:station:wmo:42046:1,2008-06-04T15:30:00Z,27.8903,-94.0367,4.0,8.206241527,177.7654168,10.38,'11111222,11111222,11111222' 
TABS,ioos:station:wmo:42046:1,2008-06-04T16:00:00Z,27.8903,-94.0367,4.0,7.581688466,178.7909833,9.59,'11111222,11111222,11111222' 
TABS,ioos:station:wmo:42046:1,2008-06-04T16:30:00Z,27.8903,-94.0367,4.0,8.517188503,175.4209354,10.15,'11111222,11111222,11111222' 
TABS,ioos:station:wmo:42046:1,2008-06-04T17:00:00Z,27.8903,-94.0367,4.0,8.243985687,176.6623259,9.5,'11111222,11111222,11111222' 
TABS,ioos:station:wmo:42046:1,2008-06-04T17:30:00Z,27.8903,-94.0367,4.0,7.925181386,169.0164083,9.62,'11111222,11111222,11111222' 
TABS,ioos:station:wmo:42046:1,2008-06-04T18:00:00Z,27.8903,-94.0367,4.0,8.719736235,173.8777211,11.05,'11111222,11111222,11111222' 
TABS,ioos:station:wmo:42046:1,2008-06-04T18:30:00Z,27.8903,-94.0367,4.0,8.266105492,171.7230899,9.88,'11111222,11111222,11111222' 